Time,TemperatureF,DewpointF,PressureIn,WindDirection,WindDirectionDegrees,WindSpeedMPH,WindSpeedGustMPH,Humidity,HourlyPrecipIn,Conditions,Clouds,dailyrainin,SolarRadiationWatts/m^2,SoftwareType,DateUTC
2013-04-01 00:00:00,21.0,8.0,-100.00,NNW,329,0.0,0.0,56,0.00,,,0.03,0.000000,,2013-04-01 05:00:00,
2013-04-01 00:33:00,21.0,8.0,-100.00,NNW,329,0.0,0.0,56,0.00,,,0.03,0.000000,,2013-04-01 05:33:00,
2013-04-01 00:43:00,21.0,8.0,-100.00,NNW,329,0.0,0.0,56,0.00,,,0.03,0.000000,,2013-04-01 05:43:00,
2013-04-01 00:53:00,21.0,8.0,-100.00,NNW,329,0.0,0.0,56,0.00,,,0.03,0.000000,,2013-04-01 05:53:00,
2013-04-01 01:00:00,19.0,14.0,-100.00,NW,305,0.0,2.0,79,0.00,,,0.03,0.000000,,2013-04-01 06:00:00,
2013-04-01 01:23:00,19.0,14.0,-100.00,NW,305,0.0,2.0,79,0.00,,,0.03,0.000000,,2013-04-01 06:23:00,
2013-04-01 01:34:00,19.0,14.0,-100.00,NW,305,0.0,2.0,79,0.00,,,0.03,0.000000,,2013-04-01 06:34:00,
2013-04-01 01:43:00,19.0,14.0,-100.00,NW,305,0.0,2.0,79,0.00,,,0.03,0.000000,,2013-04-01 06:43:00,
2013-04-01 01:53:00,19.0,14.0,-100.00,NW,305,0.0,2.0,79,0.00,,,0.03,0.000000,,2013-04-01 06:53:00,
2013-04-01 02:00:00,20.0,9.0,-100.00,NW,307,0.0,0.0,61,0.00,,,0.03,0.000000,,2013-04-01 07:00:00,
2013-04-01 02:22:00,20.0,9.0,-100.00,NW,307,0.0,0.0,61,0.00,,,0.03,0.000000,,2013-04-01 07:22:00,
2013-04-01 02:32:00,20.0,9.0,-100.00,NW,307,0.0,0.0,61,0.00,,,0.03,0.000000,,2013-04-01 07:32:00,
2013-04-01 02:43:00,20.0,9.0,-100.00,NW,307,0.0,0.0,61,0.00,,,0.03,0.000000,,2013-04-01 07:43:00,
2013-04-01 02:53:00,20.0,9.0,-100.00,NW,307,0.0,0.0,61,0.00,,,0.03,0.000000,,2013-04-01 07:53:00,
2013-04-01 03:00:00,20.0,6.0,-100.00,NW,313,0.0,0.0,55,0.00,,,0.03,0.000000,,2013-04-01 08:00:00,
2013-04-01 03:22:00,20.0,6.0,-100.00,NW,313,0.0,0.0,55,0.00,,,0.03,0.000000,,2013-04-01 08:22:00,
2013-04-01 03:32:00,20.0,6.0,-100.00,NW,313,0.0,0.0,55,0.00,,,0.03,0.000000,,2013-04-01 08:32:00,
2013-04-01 03:43:00,20.0,6.0,-100.00,NW,313,0.0,0.0,55,0.00,,,0.03,0.000000,,2013-04-01 08:43:00,
2013-04-01 03:53:00,20.0,6.0,-100.00,NW,313,0.0,0.0,55,0.00,,,0.03,0.000000,,2013-04-01 08:53:00,
2013-04-01 04:00:00,20.0,5.0,-100.00,WNW,301,0.0,1.0,52,0.00,,,0.03,0.000000,,2013-04-01 09:00:00,
2013-04-01 04:33:00,20.0,5.0,-100.00,WNW,301,0.0,1.0,52,0.00,,,0.03,0.000000,,2013-04-01 09:33:00,
2013-04-01 04:43:00,20.0,5.0,-100.00,WNW,301,0.0,1.0,52,0.00,,,0.03,0.000000,,2013-04-01 09:43:00,
2013-04-01 04:53:00,20.0,5.0,-100.00,WNW,301,0.0,1.0,52,0.00,,,0.03,0.000000,,2013-04-01 09:53:00,
2013-04-01 05:00:00,20.0,4.0,-100.00,NW,306,0.0,1.0,50,0.00,,,0.03,0.000000,,2013-04-01 10:00:00,
2013-04-01 05:34:00,20.0,4.0,-100.00,NW,306,0.0,1.0,50,0.00,,,0.03,0.000000,,2013-04-01 10:34:00,
2013-04-01 05:43:00,20.0,4.0,-100.00,NW,306,0.0,1.0,50,0.00,,,0.03,0.000000,,2013-04-01 10:43:00,
2013-04-01 05:53:00,20.0,4.0,-100.00,NW,306,0.0,1.0,50,0.00,,,0.03,0.000000,,2013-04-01 10:53:00,
2013-04-01 06:00:00,19.0,3.0,-100.00,WNW,302,0.0,0.0,50,0.00,,,0.03,0.000000,,2013-04-01 11:00:00,
2013-04-01 06:33:00,19.0,3.0,-100.00,WNW,302,0.0,0.0,50,0.00,,,0.03,0.000000,,2013-04-01 11:33:00,
2013-04-01 06:43:00,19.0,3.0,-100.00,WNW,302,0.0,0.0,50,0.00,,,0.03,0.000000,,2013-04-01 11:43:00,
2013-04-01 06:53:00,19.0,3.0,-100.00,WNW,302,0.0,0.0,50,0.00,,,0.03,0.000000,,2013-04-01 11:53:00,
2013-04-01 07:00:00,19.0,6.0,-100.00,WNW,297,0.0,0.0,55,0.00,,,0.03,2.000000,,2013-04-01 12:00:00,
2013-04-01 07:23:00,19.0,6.0,-100.00,WNW,297,0.0,0.0,55,0.00,,,0.03,2.000000,,2013-04-01 12:23:00,
2013-04-01 07:32:00,19.0,6.0,-100.00,WNW,297,0.0,0.0,55,0.00,,,0.03,2.000000,,2013-04-01 12:32:00,
2013-04-01 07:43:00,19.0,6.0,-100.00,WNW,297,0.0,0.0,55,0.00,,,0.03,2.000000,,2013-04-01 12:43:00,
2013-04-01 07:53:00,19.0,6.0,-100.00,WNW,297,0.0,0.0,55,0.00,,,0.03,2.000000,,2013-04-01 12:53:00,
2013-04-01 08:00:00,19.0,13.0,-100.00,WNW,291,0.0,1.0,77,0.00,,,0.03,50.000000,,2013-04-01 13:00:00,
2013-04-01 08:22:00,19.0,13.0,-100.00,WNW,291,0.0,1.0,77,0.00,,,0.03,50.000000,,2013-04-01 13:22:00,
2013-04-01 08:33:00,19.0,13.0,-100.00,WNW,291,0.0,1.0,77,0.00,,,0.03,50.000000,,2013-04-01 13:33:00,
2013-04-01 08:43:00,19.0,13.0,-100.00,WNW,291,0.0,1.0,77,0.00,,,0.03,50.000000,,2013-04-01 13:43:00,
2013-04-01 08:52:00,19.0,13.0,-100.00,WNW,291,0.0,1.0,77,0.00,,,0.03,50.000000,,2013-04-01 13:52:00,
2013-04-01 09:00:00,20.0,10.0,-100.00,WNW,292,0.0,1.0,65,0.00,,,0.02,200.000000,,2013-04-01 14:00:00,
2013-04-01 09:33:00,20.0,10.0,-100.00,WNW,292,0.0,1.0,65,0.00,,,0.02,200.000000,,2013-04-01 14:33:00,
2013-04-01 09:43:00,20.0,10.0,-100.00,WNW,292,0.0,1.0,65,0.00,,,0.02,200.000000,,2013-04-01 14:43:00,
2013-04-01 09:53:00,20.0,10.0,-100.00,WNW,292,0.0,1.0,65,0.00,,,0.02,200.000000,,2013-04-01 14:53:00,
2013-04-01 10:00:00,21.0,7.0,-100.00,WNW,292,0.0,1.0,53,0.00,,,0.02,374.000000,,2013-04-01 15:00:00,
2013-04-01 10:23:00,21.0,7.0,-100.00,WNW,292,0.0,1.0,53,0.00,,,0.02,374.000000,,2013-04-01 15:23:00,
2013-04-01 10:34:00,21.0,7.0,-100.00,WNW,292,0.0,1.0,53,0.00,,,0.02,374.000000,,2013-04-01 15:34:00,
2013-04-01 10:43:00,21.0,7.0,-100.00,WNW,292,0.0,1.0,53,0.00,,,0.02,374.000000,,2013-04-01 15:43:00,
2013-04-01 10:54:00,21.0,7.0,-100.00,WNW,292,0.0,1.0,53,0.00,,,0.02,374.000000,,2013-04-01 15:54:00,
2013-04-01 12:00:00,27.0,5.0,-100.00,NW,314,0.0,6.0,38,-99.99,,,0.00,908.000000,,2013-04-01 17:00:00,
2013-04-01 12:32:00,27.0,5.0,-100.00,NW,314,0.0,6.0,38,-99.99,,,0.00,908.000000,,2013-04-01 17:32:00,
2013-04-01 12:42:00,27.0,5.0,-100.00,NW,314,0.0,6.0,38,-99.99,,,0.00,908.000000,,2013-04-01 17:42:00,
2013-04-01 12:53:00,27.0,5.0,-100.00,NW,314,0.0,6.0,38,-99.99,,,0.00,908.000000,,2013-04-01 17:53:00,
2013-04-01 13:00:00,28.0,5.0,-100.00,NW,307,5.0,20.0,36,0.00,,,0.00,937.000000,,2013-04-01 18:00:00,
2013-04-01 13:33:00,28.0,5.0,-100.00,NW,307,5.0,20.0,36,0.00,,,0.00,937.000000,,2013-04-01 18:33:00,
2013-04-01 13:43:00,28.0,5.0,-100.00,NW,307,5.0,20.0,36,0.00,,,0.00,937.000000,,2013-04-01 18:43:00,
2013-04-01 13:53:00,28.0,5.0,-100.00,NW,307,5.0,20.0,36,0.00,,,0.00,937.000000,,2013-04-01 18:53:00,
2013-04-01 14:00:00,28.0,3.0,-100.00,NW,312,8.0,22.0,34,0.00,,,0.00,938.000000,,2013-04-01 19:00:00,
2013-04-01 14:33:00,28.0,3.0,-100.00,NW,312,8.0,22.0,34,0.00,,,0.00,938.000000,,2013-04-01 19:33:00,
2013-04-01 14:43:00,28.0,3.0,-100.00,NW,312,8.0,22.0,34,0.00,,,0.00,938.000000,,2013-04-01 19:43:00,
2013-04-01 14:53:00,28.0,3.0,-100.00,NW,312,8.0,22.0,34,0.00,,,0.00,938.000000,,2013-04-01 19:53:00,
2013-04-01 15:00:00,29.0,4.0,-100.00,WNW,299,7.0,22.0,33,0.00,,,0.00,819.000000,,2013-04-01 20:00:00,
2013-04-01 15:33:00,29.0,4.0,-100.00,WNW,299,7.0,22.0,33,0.00,,,0.00,819.000000,,2013-04-01 20:33:00,
2013-04-01 15:43:00,29.0,4.0,-100.00,WNW,299,7.0,22.0,33,0.00,,,0.00,819.000000,,2013-04-01 20:43:00,
2013-04-01 15:52:00,29.0,4.0,-100.00,WNW,299,7.0,22.0,33,0.00,,,0.00,819.000000,,2013-04-01 20:52:00,
2013-04-01 16:00:00,30.0,2.0,-100.00,NW,304,7.0,18.0,30,0.00,,,0.00,735.000000,,2013-04-01 21:00:00,
2013-04-01 16:33:00,30.0,2.0,-100.00,NW,304,7.0,18.0,30,0.00,,,0.00,735.000000,,2013-04-01 21:33:00,
2013-04-01 16:43:00,30.0,2.0,-100.00,NW,304,7.0,18.0,30,0.00,,,0.00,735.000000,,2013-04-01 21:43:00,
2013-04-01 16:53:00,30.0,2.0,-100.00,NW,304,7.0,18.0,30,0.00,,,0.00,735.000000,,2013-04-01 21:53:00,
2013-04-01 17:00:00,30.0,2.0,-100.00,NW,309,10.0,24.0,30,0.00,,,0.00,535.000000,,2013-04-01 22:00:00,
2013-04-01 17:33:00,30.0,2.0,-100.00,NW,309,10.0,24.0,30,0.00,,,0.00,535.000000,,2013-04-01 22:33:00,
2013-04-01 17:43:00,30.0,2.0,-100.00,NW,309,10.0,24.0,30,0.00,,,0.00,535.000000,,2013-04-01 22:43:00,
2013-04-01 17:52:00,30.0,2.0,-100.00,NW,309,10.0,24.0,30,0.00,,,0.00,535.000000,,2013-04-01 22:52:00,
2013-04-01 18:00:00,30.0,2.0,-100.00,WNW,285,11.0,21.0,29,0.00,,,0.00,332.000000,,2013-04-01 23:00:00,
2013-04-01 18:32:00,30.0,2.0,-100.00,WNW,285,11.0,21.0,29,0.00,,,0.00,332.000000,,2013-04-01 23:32:00,
2013-04-01 18:43:00,30.0,2.0,-100.00,WNW,285,11.0,21.0,29,0.00,,,0.00,332.000000,,2013-04-01 23:43:00,
2013-04-01 18:53:00,30.0,2.0,-100.00,WNW,285,11.0,21.0,29,0.00,,,0.00,332.000000,,2013-04-01 23:53:00,
2013-04-01 19:00:00,29.0,1.0,-100.00,WNW,295,7.0,24.0,30,0.00,,,0.00,128.000000,,2013-04-02 00:00:00,
2013-04-01 19:23:00,29.0,1.0,-100.00,WNW,295,7.0,24.0,30,0.00,,,0.00,128.000000,,2013-04-02 00:23:00,
2013-04-01 19:33:00,29.0,1.0,-100.00,WNW,295,7.0,24.0,30,0.00,,,0.00,128.000000,,2013-04-02 00:33:00,
2013-04-01 19:43:00,29.0,1.0,-100.00,WNW,295,7.0,24.0,30,0.00,,,0.00,128.000000,,2013-04-02 00:43:00,
2013-04-01 19:53:00,29.0,1.0,-100.00,WNW,295,7.0,24.0,30,0.00,,,0.00,128.000000,,2013-04-02 00:53:00,
2013-04-01 20:00:00,26.0,2.0,-100.00,WNW,287,0.0,16.0,34,0.00,,,0.00,9.000000,,2013-04-02 01:00:00,
2013-04-01 20:22:00,26.0,2.0,-100.00,WNW,287,0.0,16.0,34,0.00,,,0.00,9.000000,,2013-04-02 01:22:00,
2013-04-01 20:32:00,26.0,2.0,-100.00,WNW,287,0.0,16.0,34,0.00,,,0.00,9.000000,,2013-04-02 01:32:00,
2013-04-01 20:43:00,26.0,2.0,-100.00,WNW,287,0.0,16.0,34,0.00,,,0.00,9.000000,,2013-04-02 01:43:00,
2013-04-01 20:53:00,26.0,2.0,-100.00,WNW,287,0.0,16.0,34,0.00,,,0.00,9.000000,,2013-04-02 01:53:00,
2013-04-01 21:00:00,25.0,3.0,-100.00,West,280,0.0,0.0,38,0.00,,,0.00,0.000000,,2013-04-02 02:00:00,
2013-04-01 21:33:00,25.0,3.0,-100.00,West,280,0.0,0.0,38,0.00,,,0.00,0.000000,,2013-04-02 02:33:00,
2013-04-01 21:42:00,25.0,3.0,-100.00,West,280,0.0,0.0,38,0.00,,,0.00,0.000000,,2013-04-02 02:42:00,
2013-04-01 21:53:00,25.0,3.0,-100.00,West,280,0.0,0.0,38,0.00,,,0.00,0.000000,,2013-04-02 02:53:00,
2013-04-01 22:00:00,24.0,3.0,-100.00,West,272,0.0,0.0,40,0.00,,,0.00,0.000000,,2013-04-02 03:00:00,
2013-04-01 22:22:00,24.0,3.0,-100.00,West,272,0.0,0.0,40,0.00,,,0.00,0.000000,,2013-04-02 03:22:00,
2013-04-01 22:33:00,24.0,3.0,-100.00,West,272,0.0,0.0,40,0.00,,,0.00,0.000000,,2013-04-02 03:33:00,
2013-04-01 22:43:00,24.0,3.0,-100.00,West,272,0.0,0.0,40,0.00,,,0.00,0.000000,,2013-04-02 03:43:00,
2013-04-01 22:53:00,24.0,3.0,-100.00,West,272,0.0,0.0,40,0.00,,,0.00,0.000000,,2013-04-02 03:53:00,
2013-04-01 23:00:00,23.0,4.0,-100.00,WNW,285,0.0,0.0,44,0.00,,,0.00,0.000000,,2013-04-02 04:00:00,
2013-04-01 23:23:00,23.0,4.0,-100.00,WNW,285,0.0,0.0,44,0.00,,,0.00,0.000000,,2013-04-02 04:23:00,
2013-04-01 23:33:00,23.0,4.0,-100.00,WNW,285,0.0,0.0,44,0.00,,,0.00,0.000000,,2013-04-02 04:33:00,
2013-04-01 23:43:00,23.0,4.0,-100.00,WNW,285,0.0,0.0,44,0.00,,,0.00,0.000000,,2013-04-02 04:43:00,
2013-04-01 23:53:00,23.0,4.0,-100.00,WNW,285,0.0,0.0,44,0.00,,,0.00,0.000000,,2013-04-02 04:53:00,